Weather History for KEVM - January, 2013

Change the Weather History Date:

Wednesday, January 9, 2013

  Actual Average Record
Temperature  
Mean Temperature 23 °F -  
Max Temperature 32 °F 16 °F 43 °F (1990)
Min Temperature 14 °F 0 °F -31 °F (2014)
Degree Days  
Heating Degree Days 42    
Moisture  
Dew Point 21 °F    
Average Humidity 81    
Maximum Humidity 93    
Minimum Humidity 69    
Precipitation  
Precipitation 0.00 in - - ()
Sea Level Pressure  
Sea Level Pressure 30.00 in    
Wind  
Wind Speed 12 mph (West)    
Max Wind Speed 26 mph    
Max Gust Speed 39 mph    
Visibility 8 miles    
Events Snow    
Averages and records for this station are not official NWS values.
T = Trace of Precipitation, MM = Missing Value Source: NWS Daily Summary

Daily Weather History Graph

Daily Weather History Graph

Search for Another Location

Airport or City:

Trip Planner

Search our weather history database for the weather conditions in past years. The results will help you decide how hot, cold, wet, or windy it might be!

Date:

Astronomy

Jan. 09, 2013 Rise Set
Actual Time 7:55 AM CST 4:39 PM CST
Civil Twilight 7:20 AM CST 5:14 PM CST
Nautical Twilight 6:42 AM CST 5:52 PM CST
Astronomical Twilight 6:05 AM CST 6:29 PM CST
Moon 5:35 AM CST (1/9) 2:40 PM CST (1/9)
Length of Visible Light 9h 53m
Length of Day
8h 43m
Waning Crescent, 6% of the Moon is Illuminated
Jan 9
Waning Crescent
Jan 11
New
Jan 18
First Quarter
Jan 26
Full
Feb 3
Last Quarter

Hourly Weather History & Observations

Time (CST) Temp. Windchill Dew Point Humidity Pressure Visibility Wind Dir Wind Speed Gust Speed Precip Events Conditions
12:10 AM 32.0 °F 23.6 °F 28.4 °F 87% 29.66 in 10.0 mi SW 10.4 mph - N/A   Overcast
12:30 AM 32.0 °F 22.1 °F 28.4 °F 87% 29.66 in 10.0 mi SW 13.8 mph 17.3 mph N/A   Overcast
12:49 AM 32.0 °F 23.0 °F 28.4 °F 87% 29.66 in 10.0 mi SW 11.5 mph - N/A   Overcast
1:10 AM 32.0 °F 24.2 °F 28.4 °F 87% 29.67 in 10.0 mi WSW 9.2 mph 18.4 mph N/A   Mostly Cloudy
1:30 AM 30.2 °F 21.3 °F 26.6 °F 86% 29.66 in 10.0 mi SW 10.4 mph - N/A   Scattered Clouds
1:49 AM 30.2 °F 21.3 °F 26.6 °F 86% 29.67 in 10.0 mi SW 10.4 mph - N/A   Clear
2:10 AM 30.2 °F 19.8 °F 26.6 °F 86% 29.67 in 10.0 mi SW 13.8 mph - N/A   Clear
2:30 AM 30.2 °F 20.8 °F 26.6 °F 86% 29.67 in 10.0 mi SW 11.5 mph - N/A   Mostly Cloudy
2:49 AM 30.2 °F 21.3 °F 26.6 °F 86% 29.67 in 10.0 mi SW 10.4 mph - N/A   Overcast
3:10 AM 30.2 °F 21.3 °F 26.6 °F 86% 29.67 in 10.0 mi SW 10.4 mph - N/A   Overcast
3:29 AM 30.2 °F 21.3 °F 24.8 °F 80% 29.66 in 10.0 mi SW 10.4 mph 16.1 mph N/A   Overcast
3:49 AM 30.2 °F 20.2 °F 24.8 °F 80% 29.66 in 10.0 mi SW 12.7 mph 16.1 mph N/A   Overcast
4:10 AM 30.2 °F 19.8 °F 26.6 °F 86% 29.66 in 2.5 mi SW 13.8 mph 18.4 mph N/A Snow Light Snow
4:29 AM 30.2 °F 20.2 °F 26.6 °F 86% 29.66 in 3.0 mi WSW 12.7 mph 17.3 mph N/A Snow Light Snow
4:49 AM 30.2 °F 21.3 °F 28.4 °F 93% 29.67 in 1.0 mi WSW 10.4 mph - N/A Snow Snow
5:10 AM 30.2 °F 18.5 °F 28.4 °F 93% 29.69 in 3.0 mi West 17.3 mph 27.6 mph N/A Snow Light Snow
5:29 AM 30.2 °F 15.9 °F 26.6 °F 86% 29.71 in 1.8 mi West 26.5 mph 34.5 mph N/A Snow Light Snow
6:10 AM 30.2 °F 16.8 °F 21.2 °F 69% 29.74 in 3.0 mi West 23.0 mph 32.2 mph N/A Snow Light Snow
6:49 AM 28.4 °F 14.1 °F 21.2 °F 74% 29.78 in 4.0 mi West 24.2 mph 36.8 mph N/A Snow Light Snow
7:10 AM 28.4 °F 15.1 °F 21.2 °F 74% 29.81 in 4.0 mi West 20.7 mph 39.1 mph N/A Snow Light Snow
7:29 AM 28.4 °F 14.1 °F 21.2 °F 74% 29.83 in 3.0 mi West 24.2 mph 35.7 mph N/A Snow Light Snow
7:50 AM 28.4 °F 13.8 °F 21.2 °F 74% 29.85 in 7.0 mi West 25.3 mph 33.4 mph N/A   Overcast
8:30 AM 28.4 °F 15.1 °F 21.2 °F 74% 29.90 in 5.0 mi West 20.7 mph 33.4 mph N/A   Haze
8:50 AM 28.4 °F 15.1 °F 21.2 °F 74% 29.92 in 2.5 mi West 20.7 mph 35.7 mph N/A   Haze
9:09 AM 26.6 °F 12.4 °F 21.2 °F 80% 29.94 in 3.0 mi West 21.9 mph 35.7 mph N/A   Haze
9:30 AM 26.6 °F 12.7 °F 21.2 °F 80% 29.96 in 5.0 mi WNW 20.7 mph 34.5 mph N/A   Haze
9:50 AM 26.6 °F 12.7 °F 21.2 °F 80% 29.97 in 7.0 mi WNW 20.7 mph 31.1 mph N/A   Overcast
10:09 AM 26.6 °F 12.7 °F 21.2 °F 80% 29.98 in 7.0 mi WNW 20.7 mph 31.1 mph N/A   Overcast
10:30 AM 26.6 °F 14.3 °F 19.4 °F 74% 29.99 in 10.0 mi WNW 16.1 mph 24.2 mph N/A   Overcast
10:50 AM 26.6 °F 12.7 °F 19.4 °F 74% 30.00 in 10.0 mi West 20.7 mph 24.2 mph N/A   Overcast
11:09 AM 26.6 °F 14.3 °F 19.4 °F 74% 30.00 in 10.0 mi West 16.1 mph 25.3 mph N/A   Overcast
11:30 AM 26.6 °F 13.8 °F 21.2 °F 80% 30.03 in 10.0 mi West 17.3 mph 25.3 mph N/A   Overcast
11:50 AM 26.6 °F 12.7 °F 19.4 °F 74% 30.04 in 10.0 mi West 20.7 mph 24.2 mph N/A   Overcast
12:09 PM 26.6 °F 13.1 °F 19.4 °F 74% 30.04 in 7.0 mi West 19.6 mph 28.8 mph N/A   Overcast
12:30 PM 26.6 °F 13.4 °F 19.4 °F 74% 30.04 in 10.0 mi WNW 18.4 mph 26.5 mph N/A   Overcast
12:49 PM 26.6 °F 12.7 °F 19.4 °F 74% 30.05 in 10.0 mi West 20.7 mph 26.5 mph N/A   Overcast
1:09 PM 26.6 °F 14.7 °F 19.4 °F 74% 30.06 in 10.0 mi West 15.0 mph 21.9 mph N/A   Overcast
1:29 PM 26.6 °F 14.3 °F 19.4 °F 74% 30.08 in 10.0 mi WNW 16.1 mph 21.9 mph N/A   Overcast
1:49 PM 26.6 °F 15.7 °F 19.4 °F 74% 30.10 in 10.0 mi West 12.7 mph 18.4 mph N/A   Overcast
2:10 PM 26.6 °F 15.7 °F 19.4 °F 74% 30.12 in 10.0 mi West 12.7 mph - N/A   Overcast
2:29 PM 26.6 °F 15.2 °F 19.4 °F 74% 30.12 in 10.0 mi West 13.8 mph - N/A   Overcast
2:49 PM 26.6 °F 17.5 °F 19.4 °F 74% 30.15 in 10.0 mi West 9.2 mph - N/A   Overcast
3:10 PM 26.6 °F 14.3 °F 19.4 °F 74% 30.19 in 10.0 mi West 16.1 mph 20.7 mph N/A   Overcast
3:29 PM 26.6 °F 16.8 °F 19.4 °F 74% 30.19 in 10.0 mi West 10.4 mph 17.3 mph N/A   Overcast
3:49 PM 26.6 °F 17.5 °F 19.4 °F 74% 30.20 in 10.0 mi West 9.2 mph - N/A   Overcast
4:10 PM 26.6 °F 15.7 °F 17.6 °F 69% 30.21 in 10.0 mi West 12.7 mph - N/A   Overcast
4:29 PM 26.6 °F 18.2 °F 17.6 °F 69% 30.22 in 10.0 mi West 8.1 mph 16.1 mph N/A   Overcast
4:49 PM 26.6 °F 19.1 °F 17.6 °F 69% 30.23 in 10.0 mi West 6.9 mph - N/A   Overcast
5:10 PM 24.8 °F 16.1 °F 17.6 °F 74% 30.25 in 10.0 mi WSW 8.1 mph - N/A   Overcast
5:29 PM 24.8 °F 15.3 °F 17.6 °F 74% 30.26 in 10.0 mi West 9.2 mph - N/A   Mostly Cloudy
5:49 PM 23.0 °F 17.0 °F 17.6 °F 80% 30.25 in 10.0 mi WSW 4.6 mph - N/A   Scattered Clouds
6:10 PM 23.0 °F - 17.6 °F 80% 30.25 in 10.0 mi Calm Calm - N/A   Clear
6:29 PM 21.2 °F - 17.6 °F 86% 30.24 in 10.0 mi Calm Calm - N/A   Clear
6:49 PM 19.4 °F - 14.0 °F 80% 30.23 in 10.0 mi Calm Calm - N/A   Clear
7:10 PM 17.6 °F - 15.8 °F 93% 30.23 in 10.0 mi Calm Calm - N/A   Clear
7:29 PM 14.0 °F - 12.2 °F 93% 30.24 in 10.0 mi Calm Calm - N/A   Scattered Clouds
7:50 PM 14.0 °F - 12.2 °F 93% 30.24 in 10.0 mi Calm Calm - N/A   Overcast
8:29 PM 17.6 °F 12.3 °F 15.8 °F 93% 30.23 in 10.0 mi NE 3.5 mph - N/A   Overcast
8:50 PM 19.4 °F - 17.6 °F 93% 30.25 in 10.0 mi Calm Calm - N/A   Overcast
9:09 PM 21.2 °F - 17.6 °F 86% 30.25 in 10.0 mi Calm Calm - N/A   Overcast
9:29 PM 21.2 °F - 17.6 °F 86% 30.24 in 10.0 mi Calm Calm - N/A   Overcast
9:50 PM 21.2 °F 16.4 °F 17.6 °F 86% 30.22 in 10.0 mi ENE 3.5 mph - N/A   Overcast
10:09 PM 21.2 °F - 17.6 °F 86% 30.23 in 10.0 mi Calm Calm - N/A   Overcast
10:29 PM 21.2 °F - 17.6 °F 86% 30.24 in 10.0 mi Calm Calm - N/A   Overcast
10:50 PM 21.2 °F - 17.6 °F 86% 30.24 in 10.0 mi Calm Calm - N/A   Overcast
11:09 PM 23.0 °F - 19.4 °F 86% 30.23 in 10.0 mi Calm Calm - N/A   Overcast
11:29 PM 21.2 °F - 17.6 °F 86% 30.23 in 10.0 mi Calm Calm - N/A   Overcast
11:50 PM 21.2 °F 16.4 °F 17.6 °F 86% 30.22 in 10.0 mi ENE 3.5 mph - N/A   Scattered Clouds